PROBA-2 (36037 NORAD) Tracking and Keplerian Element Data

This shows tracking and keplerian element data for the satellite.

Feedback or suggestion? Click here.




ElementValue
Catalog36037
NamePROBA-2
Epoch Orbit80902
Epoch Day34.47689999
Epoch Year2025
RAAN220.1413
Inclination98.2326
Eccentricity0.0013695
Argument of Perigee25.5014
Mean Anonmoly334.6855
Mean Motion14.54398541
Decay Rate8.21E-06
L11 36037U 09059B 25034.47689999 .00000821 00000+0 20343-3 0 9992
L22 36037 98.2326 220.1413 0013695 25.5014 334.6855 14.54398541809022



Live tracking and technical data element details for PROBA-2 (NORAD 36037). PROBA-2 can be tracked NOW for your location showing map with azimuth and elevation plus other details from your city location.







IsCatalogInMostPopularTable: catalog: 36037, numindb: 335
Update: records affected: 1



GetName: 36037 PROBA-2

Hit Count: updated at: Thu, 22 May 2025 02:50:54 GMT